Regional Weather Roundup
Issued by NWS

Home | Current Version | Previous Version | Text Only | Print | Product List | Glossary On
Versions: 1 2 3 4 5 6 7 8 9 10 11 12 13 14 15 16 17 18 19 20 21 22 23 24 25 26 27 28 29 30 31 32 33 34 35 36 37 38 39 40 41 42 43 44 45 46 47 48 49 50
000
ASUS44 KFWD 042215
RWRTX
NORTH TEXAS HOURLY WEATHER ROUNDUP
NATIONAL WEATHER SERVICE FORT WORTH TX
500 PM CDT WED MAY 04 2016

NOTE: "FAIR" INDICATES FEW OR NO CLOUDS BELOW 12,000 FEET WITH NO
SIGNIFICANT WEATHER AND/OR OBSTRUCTIONS TO VISIBILITY.

TXZ118-119-042300-
DALLAS/FORT WORTH METROPLEX

CITY           SKY/WX    TMP DP  RH WIND       PRES   REMARKS
DFW AIRPORT    SUNNY     81  48  31 NW14      29.97F
DALLAS LOVE    SUNNY     82  48  30 NW9       29.97F
FTW MEACHAM    SUNNY     82  47  29 NW12      29.98F
DAL-EXECUTIVE  SUNNY     80  49  33 NW13G21   29.97F
FTW-ALLIANCE   SUNNY     80  49  33 N8        29.98F
FTW-NAS-JRB    SUNNY     81  48  31 NW10      29.99F
FTW-SPINKS     SUNNY     79  50  36 NW14      30.01F
ARLINGTON      SUNNY     83  50  31 NW8G22    29.98F
GRAND PRAIRIE  SUNNY     81  45  28 NW8       29.99F
ADDISON        SUNNY     81  50  34 NW10G16   29.98F
MESQUITE       SUNNY     81  45  28 W14       29.97F
LANCASTER      SUNNY     82  43  25 NW13      29.98F
$$

TXZ091>094-102>105-117-120-121-131>134-042300-
NORTH CENTRAL TEXAS

CITY           SKY/WX    TMP DP  RH WIND       PRES   REMARKS
SHRMAN/DENISON SUNNY     77  44  31 NW15      29.98F
GAINESVILLE    SUNNY     79  52  39 NW10      30.00F
BOWIE          SUNNY     79  47  31 NW12      30.00F
BRIDGEPORT     SUNNY     80  53  39 N9        30.02F
DECATUR        SUNNY     79  47  33 W8        30.00F
DENTON         SUNNY     79  51  37 NW10      29.97F
MCKINNEY       SUNNY     80  49  33 NW12      29.96F
GREENVILLE     SUNNY     81  46  30 NW13G20   29.96F
ROCKWALL       SUNNY     80  51  37 NW12G22   29.96F
TERRELL        SUNNY     80  47  31 NW12      29.96F
WAXAHACHIE     SUNNY     80  51  35 NW12G18   29.99F
CLEBURNE       SUNNY     79  50  36 NW13      30.02S
GRANBURY       SUNNY     82  47  29 NW8       30.02S
$$

TXZ083>090-098>101-113>116-127>130-139>142-154-155-042300-
WESTERN NORTH TEXAS

CITY           SKY/WX    TMP DP  RH WIND       PRES   REMARKS
WICHITA FALLS  SUNNY     83  45  26 N14       30.00F
WF-KICKAPOO    SUNNY     84  42  22 N13       30.02F
VERNON         SUNNY     84  31  14 N8        30.03F
ABILENE        SUNNY     80  43  26 N10       30.07F
ABILENE-DYESS  SUNNY     82  46  28 NE9       30.05F
BRECKENRIDGE   SUNNY     82  43  25 NW10G16   30.04F
GRAHAM         SUNNY     81  50  34 NW7       30.02F
MINERAL WELLS  SUNNY     81  47  30 NW12      30.01F
STEPHENVILLE   SUNNY     80  43  26 NW9G16    30.06F
COMANCHE       SUNNY     78  50  36 N12G20    30.05F
BROWNWOOD      SUNNY     79  45  29 NW14      30.05F
COLEMAN        SUNNY     80  43  27 NW7       30.08S
$$

TXZ143>147-156>162-174-175-042300-
CENTRAL TEXAS

CITY           SKY/WX    TMP DP  RH WIND       PRES   REMARKS
WACO           SUNNY     83  49  30 NW14      29.98F
WACO-TSTC      SUNNY     82  48  30 NW13G23   29.99F
WACO-MCGREGOR  SUNNY     83  51  33 NW10      29.99F
HILLSBORO      SUNNY     78  52  39 NW13      29.99F
CORSICANA      SUNNY     82  48  30 NW14      29.98F
MEXIA          SUNNY     80  50  35 W9G21     29.97F
HEARNE         SUNNY     82  51  33 NW14      29.98F
CAMERON        SUNNY     84  50  31 NW10G16   29.98F
TEMPLE         SUNNY     83  54  36 NW9       30.00F
KILLEEN        SUNNY     81  49  32 NW15      30.00F
KILLEEN-SKYLRK SUNNY     82  52  35 VRB7      30.01F
FORT HOOD      SUNNY     82  52  34 NW12      29.99S
GATESVILLE     SUNNY     82  50  32 MISG      30.03S
HAMILTON       SUNNY     80  49  33 NW14      30.04F
LAMPASAS       SUNNY     81  52  36 NW9       30.02F
$$

TXZ095>097-106>112-122>126-135>138-148>153-164>167-042300-
EAST TEXAS

CITY           SKY/WX    TMP DP  RH WIND       PRES   REMARKS
PARIS          SUNNY     79  50  36 NW16      29.93F
SULPHUR SPRNGS SUNNY     79  52  38 NW10      29.96F
MOUNT PLEASANT SUNNY     80  49  33 NW12G17   29.93F
GILMER         SUNNY     78  50  37 W9G16     29.93S
MINEOLA        SUNNY     81  48  32 W9        29.95F
TYLER          SUNNY     81  50  33 NW14      29.94F
LONGVIEW       SUNNY     80  53  39 NW13G18   29.91F
MARSHALL       SUNNY     78  46  31 NW13G22   29.93S
ATHENS         SUNNY     79  48  34 NW8       29.94F
PALESTINE      SUNNY     81  50  34 NW12G20   29.97F
JACKSONVILLE   SUNNY     79  47  32 NW14G21   29.97F
HENDERSON      SUNNY     79  47  32 NW12      29.94S
CENTER         FAIR      82  51  35 W7G16     29.91F
NACOGDOCHES    SUNNY     81  50  34 NW10      29.93F
LUFKIN         SUNNY     80  52  37 W8G18     29.93F
$$

SUPPLEMENTAL OBSERVATIONS (CENTRAL)

CITY           SKY/WX    TMP DP  RH WIND       PRES   REMARKS
LAKE TEXOMA      N/A     77  54  44 NW16        N/A
CADDO GRASSLND   N/A     82  52  34 NW7G17      N/A
PAT MAYSE LAKE   N/A     79  46  31 W14         N/A
ATHENS           N/A     82  50  32 NW6G14      N/A
MCGREGOR         N/A     82  52  34 N8          N/A
TEMPLE           N/A     84  48  28 NW3         N/A
$$

SUPPLEMENTAL OBSERVATIONS (WEST)

CITY           SKY/WX    TMP DP  RH WIND       PRES   REMARKS
MILLERS CREEK    N/A     84  43  23 N9          N/A
POSSUM KINGDOM   N/A     81  45  28 NW8         N/A
LBJ GRASSLAND    N/A     82  48  30 NW8         N/A
GRANBURY         N/A     82  45  26 NW12        N/A
HAMBY            N/A     82  43  24 N5G16       N/A
IVIE RESERVOIR   N/A     82  41  23 NW10        N/A
COLORADO BEND    N/A     82  45  26 N9          N/A
$$

SUPPLEMENTAL OBSERVATIONS (EAST)

CITY           SKY/WX    TMP DP  RH WIND       PRES   REMARKS
CLARKSVILLE      N/A     79  52  38 NW9G17      N/A
TEXARKANA        N/A     81  52  36 W9G17       N/A
LINDEN           N/A     81  50  34 NW9G20      N/A
CADDO LAKE       N/A     82  50  32 NW8         N/A
GILMER           N/A     82  50  32 W8G16       N/A
HENDERSON        N/A     81  48  32 NW13G22     N/A
LUFKIN           N/A     81  50  34 MISG        N/A
N SABINE NF      N/A     81  50  34 MISG        N/A
S SABINE NF      N/A     81  52  36 W5          N/A
$$

SUPPLEMENTAL OBSERVATIONS ARE A COLLECTION OF AUTOMATED INSTRUMENTS
THAT ARE MAINTAINED BY A VARIETY OF FEDERAL AND STATE AGENCIES.
CERTAIN ELEMENTS...SUCH AS HUMIDITY VALUES AND SUSTAINED WIND
SPEEDS...MAY BE APPROXIMATED.





USA.gov is the U.S. government's official web portal to all federal, state and local government web resources and services.